Zurück zum Katalog

STARLINK-4325

AktivKommunikationSSO
NORAD 53068·PAYLOAD·🇺🇸 United States

Gestartet Jul 11, 2022 von Vandenberg Space Force Base

Loading…

Nächste Überflüge (nächste 24 Stunden)

TLE

AktuellSource: CelesTrak SupGP

Epoche: Sep 14, 2026, 21:52 UTC

1 53068C 22077AB  26257.91159722  .00072853  00000+0  22613-2 0  2575
2 53068  97.2855  73.6601 0001567  99.1053 190.9825 15.33405222    11

Verfolge STARLINK-4325 in Echtzeit mit AllMySat

Download on the App Store